Flag for U.S.A. Weather past 2 weeks in Cupertino, California, U.S.A.

Now
77 °F

Sunny.


Feels Like: 79 °F
Forecast: 62 / 82 °F
Wind: 13 mph from North

Location: Moffett Field

Current Time: Aug 30, 2014 at 2:00:02 PM

Latest Report: Aug 30, 2014 at 12:56 PM


Visibility: 10 mi

Pressure: 29.92 "Hg

Humidity: 54%

Dew point: 59 °F

Location of CupertinoLocation

Historic Weather in Cupertino — Graph

°F

Cupertino temperature yesterday

Maximum temperature yesterday: 77 °F (at 1:56 PM)
Minimum temperature yesterday: 62 °F (at 12:56 AM)
Average temperature yesterday: 67 °F

Past Weeks' High & Low Weather Summary

 TemperatureHumidityPressure
High80 °F (Aug 27, 2:56 PM)90% (Aug 28, 2:56 AM)30.09 "Hg (Aug 28, 2:56 AM)
Low59 °F (Aug 26, 5:56 AM)45% (Aug 28, 3:56 PM)29.80 "Hg (Aug 19, 4:56 PM)
Average67 °F71%29.94 "Hg
* Reported Aug 15 12:56 PM — Aug 30 12:56 PM, Cupertino, Weather by CustomWeather, © 2014

Note: Actual official high and low records may vary slightly from our data, if they occured in-between our weather recording intervals... More about our weather records

Advertising

Cupertino weather history for previous 24 hours

 ConditionsComfort  
Time TempWeatherWind HumidityBarometerVisibility
12:56 PM
Aug 30
77 °FSunny.13 mph54%29.92 "Hg10 mi
11:56 AM78 °FSunny.9 mph50%29.93 "Hg10 mi
10:56 AM76 °FSunny.5 mph50%29.93 "Hg10 mi
9:56 AM70 °FSunny.3 mph71%29.93 "Hg10 mi
8:56 AM67 °FSunny.No wind79%29.93 "Hg10 mi
7:56 AM65 °FSunny.No wind81%29.93 "Hg10 mi
6:56 AM62 °FClear.No wind83%29.92 "Hg10 mi
5:56 AM61 °FClear.No wind87%29.91 "Hg10 mi
4:56 AM63 °FClear.No wind84%29.90 "Hg10 mi
3:56 AM64 °FClear.No wind81%29.91 "Hg10 mi
2:56 AM65 °FClear.3 mph81%29.91 "Hg10 mi
1:56 AM65 °FClear.No wind81%29.92 "Hg10 mi
12:56 AM65 °FClear.No wind81%29.93 "Hg10 mi
11:56 PM
Aug 29
65 °FClear.No wind81%29.93 "Hg10 mi
10:56 PM65 °FClear.No wind78%29.94 "Hg10 mi
9:56 PM66 °FClear.5 mph81%29.93 "Hg10 mi
8:56 PM66 °FClear.5 mph81%29.92 "Hg10 mi
7:56 PM68 °FSunny.5 mph73%29.90 "Hg10 mi
6:56 PM69 °FSunny.6 mph70%29.91 "Hg10 mi
5:56 PM69 °FSunny.12 mph70%29.92 "Hg10 mi
4:56 PM71 °FSunny.12 mph68%29.92 "Hg10 mi
3:56 PM72 °FSunny.14 mph66%29.91 "Hg10 mi
2:56 PM72 °FSunny.16 mph66%29.91 "Hg10 mi
Weather by CustomWeather, © 2014

See weather overviewHow to use our weather pages